Time,TemperatureF,DewpointF,PressureIn,WindDirection,WindDirectionDegrees,WindSpeedMPH,WindSpeedGustMPH,Humidity,HourlyPrecipIn,Conditions,Clouds,dailyrainin,SolarRadiationWatts/m^2,SoftwareType,DateUTC
2013-09-28 00:03:00,56.0,44.0,-100.00,South,186,4.0,7.0,65,0.00,,,0.02,0.000000,,2013-09-28 05:03:00,
2013-09-28 00:12:00,52.0,45.0,-100.00,ESE,119,3.0,6.0,78,0.00,,,0.02,0.000000,,2013-09-28 05:12:00,
2013-09-28 00:43:00,52.0,45.0,-100.00,ESE,119,3.0,6.0,78,0.00,,,0.02,0.000000,,2013-09-28 05:43:00,
2013-09-28 00:53:00,52.0,45.0,-100.00,ESE,119,3.0,6.0,78,0.00,,,0.02,0.000000,,2013-09-28 05:53:00,
2013-09-28 01:02:00,52.0,45.0,-100.00,ESE,119,3.0,6.0,78,0.00,,,0.02,0.000000,,2013-09-28 06:02:00,
2013-09-28 01:12:00,49.0,46.0,-100.00,East,90,2.0,5.0,88,0.00,,,0.02,0.000000,,2013-09-28 06:12:00,
2013-09-28 01:42:00,49.0,46.0,-100.00,East,90,2.0,5.0,88,0.00,,,0.02,0.000000,,2013-09-28 06:42:00,
2013-09-28 01:52:00,49.0,46.0,-100.00,East,90,2.0,5.0,88,0.00,,,0.02,0.000000,,2013-09-28 06:52:00,
2013-09-28 02:02:00,49.0,46.0,-100.00,East,90,2.0,5.0,88,0.00,,,0.02,0.000000,,2013-09-28 07:02:00,
2013-09-28 02:12:00,47.0,45.0,-100.00,East,95,1.0,3.0,94,0.00,,,0.01,0.000000,,2013-09-28 07:12:00,
2013-09-28 02:42:00,47.0,45.0,-100.00,East,95,1.0,3.0,94,0.00,,,0.01,0.000000,,2013-09-28 07:42:00,
2013-09-28 02:52:00,47.0,45.0,-100.00,East,95,1.0,3.0,94,0.00,,,0.01,0.000000,,2013-09-28 07:52:00,
2013-09-28 03:02:00,47.0,45.0,-100.00,East,95,1.0,3.0,94,0.00,,,0.01,0.000000,,2013-09-28 08:02:00,
2013-09-28 03:43:00,47.0,46.0,-100.00,ESE,112,2.0,4.0,95,0.00,,,0.01,0.000000,,2013-09-28 08:43:00,
2013-09-28 03:53:00,47.0,46.0,-100.00,ESE,112,2.0,4.0,95,0.00,,,0.01,0.000000,,2013-09-28 08:53:00,
2013-09-28 04:02:00,47.0,46.0,-100.00,ESE,112,2.0,4.0,95,0.00,,,0.01,0.000000,,2013-09-28 09:02:00,
2013-09-28 04:11:00,47.0,46.0,-100.00,ESE,112,2.0,4.0,95,0.00,,,0.01,0.000000,,2013-09-28 09:11:00,
2013-09-28 04:12:00,51.0,50.0,-100.00,SSE,168,2.0,4.0,97,0.00,,,0.01,0.000000,,2013-09-28 09:12:00,
2013-09-28 04:43:00,51.0,50.0,-100.00,SSE,168,2.0,4.0,97,0.00,,,0.01,0.000000,,2013-09-28 09:43:00,
2013-09-28 04:54:00,51.0,50.0,-100.00,SSE,168,2.0,4.0,97,0.00,,,0.01,0.000000,,2013-09-28 09:54:00,
2013-09-28 05:03:00,51.0,50.0,-100.00,SSE,168,2.0,4.0,97,0.00,,,0.01,0.000000,,2013-09-28 10:03:00,
2013-09-28 05:12:00,53.0,52.0,-100.00,South,177,2.0,5.0,98,0.00,,,0.01,0.000000,,2013-09-28 10:12:00,
2013-09-28 05:43:00,53.0,52.0,-100.00,South,177,2.0,5.0,98,0.00,,,0.01,0.000000,,2013-09-28 10:43:00,
2013-09-28 05:52:00,53.0,52.0,-100.00,South,177,2.0,5.0,98,0.00,,,0.01,0.000000,,2013-09-28 10:52:00,
2013-09-28 06:03:00,53.0,52.0,-100.00,South,177,2.0,5.0,98,0.00,,,0.01,0.000000,,2013-09-28 11:03:00,
2013-09-28 06:12:00,54.0,53.0,-100.00,South,171,3.0,8.0,98,0.00,,,0.00,0.000000,,2013-09-28 11:12:00,
2013-09-28 06:43:00,54.0,53.0,-100.00,South,171,3.0,8.0,98,0.00,,,0.00,0.000000,,2013-09-28 11:43:00,
2013-09-28 06:52:00,54.0,53.0,-100.00,South,171,3.0,8.0,98,0.00,,,0.00,0.000000,,2013-09-28 11:52:00,
2013-09-28 07:01:00,54.0,53.0,-100.00,South,171,3.0,8.0,98,0.00,,,0.00,0.000000,,2013-09-28 12:01:00,
2013-09-28 07:12:00,56.0,55.0,-100.00,South,182,5.0,9.0,96,0.00,,,0.00,6.000000,,2013-09-28 12:12:00,
2013-09-28 07:42:00,56.0,55.0,-100.00,South,182,5.0,9.0,96,0.00,,,0.00,6.000000,,2013-09-28 12:42:00,
2013-09-28 07:52:00,56.0,55.0,-100.00,South,182,5.0,9.0,96,0.00,,,0.00,6.000000,,2013-09-28 12:52:00,
2013-09-28 08:02:00,56.0,55.0,-100.00,South,182,5.0,9.0,96,0.00,,,0.00,6.000000,,2013-09-28 13:02:00,
2013-09-28 08:12:00,59.0,55.0,-100.00,South,175,5.0,10.0,88,0.00,,,0.00,81.000000,,2013-09-28 13:12:00,
2013-09-28 08:42:00,59.0,55.0,-100.00,South,175,5.0,10.0,88,0.00,,,0.00,81.000000,,2013-09-28 13:42:00,
2013-09-28 08:52:00,59.0,55.0,-100.00,South,175,5.0,10.0,88,0.00,,,0.00,81.000000,,2013-09-28 13:52:00,
2013-09-28 09:02:00,59.0,55.0,-100.00,South,175,5.0,10.0,88,0.00,,,0.00,81.000000,,2013-09-28 14:02:00,
2013-09-28 09:12:00,63.0,55.0,-100.00,South,181,7.0,16.0,76,0.00,,,0.00,311.000000,,2013-09-28 14:12:00,
2013-09-28 09:42:00,63.0,55.0,-100.00,South,181,7.0,16.0,76,0.00,,,0.00,311.000000,,2013-09-28 14:42:00,
2013-09-28 09:52:00,63.0,55.0,-100.00,South,181,7.0,16.0,76,0.00,,,0.00,311.000000,,2013-09-28 14:52:00,
2013-09-28 10:02:00,63.0,55.0,-100.00,South,181,7.0,16.0,76,0.00,,,0.00,311.000000,,2013-09-28 15:02:00,
2013-09-28 10:12:00,67.0,56.0,-100.00,SSW,194,9.0,17.0,67,0.00,,,0.00,489.000000,,2013-09-28 15:12:00,
2013-09-28 10:44:00,67.0,56.0,-100.00,SSW,194,9.0,17.0,67,0.00,,,0.00,489.000000,,2013-09-28 15:44:00,
2013-09-28 10:54:00,67.0,56.0,-100.00,SSW,194,9.0,17.0,67,0.00,,,0.00,489.000000,,2013-09-28 15:54:00,
2013-09-28 11:05:00,67.0,56.0,-100.00,SSW,194,9.0,17.0,67,0.00,,,0.00,489.000000,,2013-09-28 16:05:00,
2013-09-28 11:12:00,70.0,56.0,-100.00,South,187,8.0,16.0,62,0.00,,,0.00,589.000000,,2013-09-28 16:12:00,
2013-09-28 11:43:00,70.0,56.0,-100.00,South,187,8.0,16.0,62,0.00,,,0.00,589.000000,,2013-09-28 16:43:00,
2013-09-28 11:54:00,70.0,56.0,-100.00,South,187,8.0,16.0,62,0.00,,,0.00,589.000000,,2013-09-28 16:54:00,
2013-09-28 12:03:00,70.0,56.0,-100.00,South,187,8.0,16.0,62,0.00,,,0.00,589.000000,,2013-09-28 17:03:00,
2013-09-28 12:12:00,73.0,57.0,-100.00,South,179,9.0,19.0,58,0.00,,,0.00,666.000000,,2013-09-28 17:12:00,
2013-09-28 12:43:00,73.0,57.0,-100.00,South,179,9.0,19.0,58,0.00,,,0.00,666.000000,,2013-09-28 17:43:00,
2013-09-28 12:52:00,73.0,57.0,-100.00,South,179,9.0,19.0,58,0.00,,,0.00,666.000000,,2013-09-28 17:52:00,
2013-09-28 13:02:00,73.0,57.0,-100.00,South,179,9.0,19.0,58,0.00,,,0.00,666.000000,,2013-09-28 18:02:00,
2013-09-28 13:42:00,73.0,56.0,-100.00,South,184,11.0,25.0,56,0.00,,,-99.99,676.000000,,2013-09-28 18:42:00,
2013-09-28 13:52:00,73.0,56.0,-100.00,South,184,11.0,25.0,56,0.00,,,-99.99,676.000000,,2013-09-28 18:52:00,
2013-09-28 14:02:00,73.0,56.0,-100.00,South,184,11.0,25.0,56,0.00,,,-99.99,676.000000,,2013-09-28 19:02:00,
2013-09-28 14:11:00,73.0,56.0,-100.00,South,184,11.0,25.0,56,0.00,,,-99.99,676.000000,,2013-09-28 19:11:00,
2013-09-28 14:12:00,73.0,56.0,-100.00,South,178,11.0,24.0,56,0.00,,,0.00,688.000000,,2013-09-28 19:12:00,
2013-09-28 14:42:00,73.0,56.0,-100.00,South,178,11.0,24.0,56,0.00,,,0.00,688.000000,,2013-09-28 19:42:00,
2013-09-28 14:52:00,73.0,56.0,-100.00,South,178,11.0,24.0,56,0.00,,,0.00,688.000000,,2013-09-28 19:52:00,
2013-09-28 15:02:00,73.0,56.0,-100.00,South,178,11.0,24.0,56,0.00,,,0.00,688.000000,,2013-09-28 20:02:00,
2013-09-28 15:12:00,72.0,57.0,-100.00,South,182,11.0,27.0,60,0.00,,,0.00,513.000000,,2013-09-28 20:12:00,
2013-09-28 15:43:00,72.0,57.0,-100.00,South,182,11.0,27.0,60,0.00,,,0.00,513.000000,,2013-09-28 20:43:00,
2013-09-28 15:53:00,72.0,57.0,-100.00,South,182,11.0,27.0,60,0.00,,,0.00,513.000000,,2013-09-28 20:53:00,
2013-09-28 16:02:00,72.0,57.0,-100.00,South,182,11.0,27.0,60,0.00,,,0.00,513.000000,,2013-09-28 21:02:00,
2013-09-28 16:12:00,71.0,56.0,-100.00,South,188,11.0,29.0,60,0.00,,,0.00,477.000000,,2013-09-28 21:12:00,
2013-09-28 16:44:00,71.0,56.0,-100.00,South,188,11.0,29.0,60,0.00,,,0.00,477.000000,,2013-09-28 21:44:00,
2013-09-28 16:55:00,71.0,56.0,-100.00,South,188,11.0,29.0,60,0.00,,,0.00,477.000000,,2013-09-28 21:55:00,
2013-09-28 17:04:00,71.0,56.0,-100.00,South,188,11.0,29.0,60,0.00,,,0.00,477.000000,,2013-09-28 22:04:00,
2013-09-28 17:12:00,68.0,55.0,-100.00,South,188,11.0,29.0,64,0.00,,,0.00,204.000000,,2013-09-28 22:12:00,
2013-09-28 17:43:00,68.0,55.0,-100.00,South,188,11.0,29.0,64,0.00,,,0.00,204.000000,,2013-09-28 22:43:00,
2013-09-28 17:54:00,68.0,55.0,-100.00,South,188,11.0,29.0,64,0.00,,,0.00,204.000000,,2013-09-28 22:54:00,
2013-09-28 18:03:00,68.0,55.0,-100.00,South,188,11.0,29.0,64,0.00,,,0.00,204.000000,,2013-09-28 23:03:00,
2013-09-28 18:43:00,67.0,56.0,-100.00,South,182,10.0,20.0,69,0.00,,,0.00,33.000000,,2013-09-28 23:43:00,
2013-09-28 18:53:00,67.0,56.0,-100.00,South,182,10.0,20.0,69,0.00,,,0.00,33.000000,,2013-09-28 23:53:00,
2013-09-28 19:02:00,67.0,56.0,-100.00,South,182,10.0,20.0,69,0.00,,,0.00,33.000000,,2013-09-29 00:02:00,
2013-09-28 19:11:00,67.0,56.0,-100.00,South,182,10.0,20.0,69,0.00,,,0.00,33.000000,,2013-09-29 00:11:00,
2013-09-28 19:12:00,67.0,57.0,-100.00,South,186,10.0,18.0,71,0.00,,,0.00,1.000000,,2013-09-29 00:12:00,
2013-09-28 19:43:00,67.0,57.0,-100.00,South,186,10.0,18.0,71,0.00,,,0.00,1.000000,,2013-09-29 00:43:00,
2013-09-28 19:52:00,67.0,57.0,-100.00,South,186,10.0,18.0,71,0.00,,,0.00,1.000000,,2013-09-29 00:52:00,
2013-09-28 20:02:00,67.0,57.0,-100.00,South,186,10.0,18.0,71,0.00,,,0.00,1.000000,,2013-09-29 01:02:00,
2013-09-28 20:12:00,65.0,58.0,-100.00,SSW,210,10.0,21.0,78,0.00,,,0.00,0.000000,,2013-09-29 01:12:00,
2013-09-28 20:43:00,65.0,58.0,-100.00,SSW,210,10.0,21.0,78,0.00,,,0.00,0.000000,,2013-09-29 01:43:00,
2013-09-28 20:52:00,65.0,58.0,-100.00,SSW,210,10.0,21.0,78,0.00,,,0.00,0.000000,,2013-09-29 01:52:00,
2013-09-28 21:03:00,65.0,58.0,-100.00,SSW,210,10.0,21.0,78,0.00,,,0.00,0.000000,,2013-09-29 02:03:00,
2013-09-28 21:12:00,60.0,58.0,-100.00,WNW,302,8.0,15.0,94,0.08,,,0.08,0.000000,,2013-09-29 02:12:00,
2013-09-28 21:43:00,60.0,58.0,-100.00,WNW,302,8.0,15.0,94,0.08,,,0.08,0.000000,,2013-09-29 02:43:00,
2013-09-28 21:53:00,60.0,58.0,-100.00,WNW,302,8.0,15.0,94,0.08,,,0.08,0.000000,,2013-09-29 02:53:00,
2013-09-28 22:03:00,60.0,58.0,-100.00,WNW,302,8.0,15.0,94,0.08,,,0.08,0.000000,,2013-09-29 03:03:00,
2013-09-28 22:12:00,58.0,57.0,-100.00,West,262,6.0,12.0,96,0.07,,,0.15,0.000000,,2013-09-29 03:12:00,
2013-09-28 22:44:00,58.0,57.0,-100.00,West,262,6.0,12.0,96,0.07,,,0.15,0.000000,,2013-09-29 03:44:00,
2013-09-28 22:55:00,58.0,57.0,-100.00,West,262,6.0,12.0,96,0.07,,,0.15,0.000000,,2013-09-29 03:55:00,
2013-09-28 23:02:00,-999.0,-99.9,-100.00,West,262,6.0,12.0,-999,-99.99,,,-99.99,0.000000,,2013-09-29 04:02:00,
2013-09-28 23:12:00,55.0,53.0,-100.00,West,279,4.0,13.0,94,0.00,,,0.15,0.000000,,2013-09-29 04:12:00,
2013-09-28 23:44:00,55.0,53.0,-100.00,West,279,4.0,13.0,94,0.00,,,0.15,0.000000,,2013-09-29 04:44:00,
2013-09-28 23:54:00,55.0,53.0,-100.00,West,279,4.0,13.0,94,0.00,,,0.15,0.000000,,2013-09-29 04:54:00,